,,PressureMeas_1m,,PRMeasQMR101_1,,RHStat155_1m_1,,SRMeasQMS101R_1m,,TAStat155_1m_1,,GenWind_1,,GenWind_1,
2017-06-01, 07:00:06,VALID,917.428,VALID,0.0,VALID,80.791,VALID,57.569,VALID,19.617,VALID,154.0,VALID,0.467,
2017-06-01, 07:01:06,VALID,917.414,VALID,0.0,VALID,80.462,VALID,61.168,VALID,19.66,VALID,138.0,VALID,0.174,
2017-06-01, 07:02:06,VALID,917.412,VALID,0.0,VALID,80.672,VALID,65.341,VALID,19.681,VALID,136.0,VALID,0.31,
2017-06-01, 07:03:06,VALID,917.428,VALID,0.0,VALID,80.712,VALID,70.154,VALID,19.68,VALID,135.0,VALID,0.279,
2017-06-01, 07:04:06,VALID,917.436,VALID,0.0,VALID,81.311,VALID,75.494,VALID,19.662,VALID,135.0,VALID,0.316,
2017-06-01, 07:05:06,VALID,917.451,VALID,0.0,VALID,81.338,VALID,81.057,VALID,19.665,VALID,135.0,VALID,0.414,
2017-06-01, 07:06:06,VALID,917.447,VALID,0.0,VALID,80.836,VALID,86.305,VALID,19.704,VALID,140.0,VALID,0.534,
2017-06-01, 07:07:06,VALID,917.478,VALID,0.0,VALID,80.272,VALID,90.593,VALID,19.77,VALID,147.0,VALID,0.37,
2017-06-01, 07:08:06,VALID,917.507,VALID,0.0,VALID,81.038,VALID,93.859,VALID,19.834,VALID,139.0,VALID,0.082,
2017-06-01, 07:09:06,VALID,917.554,VALID,0.0,VALID,80.885,VALID,96.056,VALID,19.878,VALID,136.0,VALID,0.004,
2017-06-01, 07:10:06,VALID,917.583,VALID,0.0,VALID,79.987,VALID,97.67,VALID,19.903,VALID,151.0,VALID,0.0,
2017-06-01, 07:11:06,VALID,917.6,VALID,0.0,VALID,79.333,VALID,99.23,VALID,19.965,VALID,152.0,VALID,0.0,
2017-06-01, 07:12:06,VALID,917.607,VALID,0.0,VALID,80.287,VALID,100.572,VALID,20.037,VALID,152.0,VALID,0.0,
2017-06-01, 07:13:06,VALID,917.62,VALID,0.0,VALID,80.35,VALID,101.746,VALID,20.087,VALID,139.0,VALID,0.087,
2017-06-01, 07:14:06,VALID,917.631,VALID,0.0,VALID,80.824,VALID,102.089,VALID,20.09,VALID,140.0,VALID,0.263,
2017-06-01, 07:15:06,VALID,917.657,VALID,0.0,VALID,81.539,VALID,101.916,VALID,20.069,VALID,139.0,VALID,0.358,
2017-06-01, 07:16:06,VALID,917.696,VALID,0.0,VALID,81.615,VALID,101.443,VALID,20.081,VALID,141.0,VALID,0.144,
2017-06-01, 07:17:06,VALID,917.725,VALID,0.0,VALID,83.226,VALID,100.92,VALID,20.101,VALID,139.0,VALID,0.198,
2017-06-01, 07:18:06,VALID,917.735,VALID,0.0,VALID,83.611,VALID,100.553,VALID,20.095,VALID,137.0,VALID,0.233,
2017-06-01, 07:19:06,VALID,917.755,VALID,0.0,VALID,83.525,VALID,99.801,VALID,20.092,VALID,155.0,VALID,0.507,
2017-06-01, 07:20:06,VALID,917.784,VALID,0.0,VALID,81.975,VALID,98.516,VALID,20.075,VALID,149.0,VALID,0.714,
2017-06-01, 07:21:06,VALID,917.788,VALID,0.0,VALID,83.159,VALID,98.535,VALID,20.083,VALID,152.0,VALID,0.885,
2017-06-01, 07:22:06,VALID,917.815,VALID,0.0,VALID,80.188,VALID,95.11,VALID,20.071,VALID,148.0,VALID,1.244,
2017-06-01, 07:23:06,VALID,917.821,VALID,0.0,VALID,80.955,VALID,92.09,VALID,19.996,VALID,149.0,VALID,1.381,
2017-06-01, 07:24:06,VALID,917.852,VALID,0.0,VALID,80.519,VALID,89.769,VALID,19.889,VALID,148.0,VALID,1.536,
2017-06-01, 07:25:06,VALID,917.877,VALID,0.0,VALID,81.233,VALID,87.342,VALID,19.802,VALID,148.0,VALID,1.709,
2017-06-01, 07:26:06,VALID,917.89,VALID,0.0,VALID,81.921,VALID,84.314,VALID,19.714,VALID,145.0,VALID,1.763,
2017-06-01, 07:27:06,VALID,917.893,VALID,0.0,VALID,82.496,VALID,81.533,VALID,19.672,VALID,141.0,VALID,1.727,
2017-06-01, 07:28:06,VALID,917.92,VALID,0.0,VALID,82.398,VALID,79.141,VALID,19.663,VALID,140.0,VALID,1.789,
2017-06-01, 07:29:06,VALID,917.929,VALID,0.0,VALID,83.157,VALID,77.364,VALID,19.645,VALID,135.0,VALID,1.557,
2017-06-01, 07:30:06,VALID,917.961,VALID,0.0,VALID,82.684,VALID,76.763,VALID,19.644,VALID,135.0,VALID,1.478,
2017-06-01, 07:31:06,VALID,917.982,VALID,0.0,VALID,82.452,VALID,77.318,VALID,19.687,VALID,132.0,VALID,1.619,
2017-06-01, 07:32:06,VALID,917.988,VALID,0.0,VALID,82.526,VALID,78.921,VALID,19.728,VALID,132.0,VALID,1.334,
2017-06-01, 07:33:06,VALID,918.018,VALID,0.0,VALID,83.303,VALID,81.332,VALID,19.749,VALID,132.0,VALID,1.308,
2017-06-01, 07:34:06,VALID,918.047,VALID,0.0,VALID,83.718,VALID,84.816,VALID,19.775,VALID,129.0,VALID,1.413,
2017-06-01, 07:35:06,VALID,918.055,VALID,0.0,VALID,83.259,VALID,89.376,VALID,19.806,VALID,127.0,VALID,1.549,
2017-06-01, 07:36:06,VALID,918.068,VALID,0.0,VALID,82.776,VALID,94.804,VALID,19.836,VALID,127.0,VALID,1.625,
2017-06-01, 07:37:06,VALID,918.065,VALID,0.0,VALID,83.465,VALID,100.953,VALID,19.858,VALID,128.0,VALID,1.434,
2017-06-01, 07:38:06,VALID,918.073,VALID,0.0,VALID,83.751,VALID,107.774,VALID,19.855,VALID,129.0,VALID,1.475,
2017-06-01, 07:39:06,VALID,918.076,VALID,0.0,VALID,83.025,VALID,114.997,VALID,19.864,VALID,127.0,VALID,1.439,
2017-06-01, 07:40:06,VALID,918.096,VALID,0.0,VALID,83.445,VALID,122.353,VALID,19.893,VALID,131.0,VALID,1.276,
2017-06-01, 07:41:06,VALID,918.09,VALID,0.0,VALID,83.831,VALID,129.437,VALID,19.897,VALID,126.0,VALID,1.153,
2017-06-01, 07:42:06,VALID,918.074,VALID,0.0,VALID,84.627,VALID,135.969,VALID,19.912,VALID,123.0,VALID,1.072,
2017-06-01, 07:43:06,VALID,918.069,VALID,0.0,VALID,84.556,VALID,142.237,VALID,19.921,VALID,113.0,VALID,1.214,
2017-06-01, 07:44:06,VALID,918.061,VALID,0.0,VALID,83.146,VALID,148.275,VALID,19.942,VALID,106.0,VALID,1.237,
2017-06-01, 07:45:06,VALID,918.035,VALID,0.0,VALID,83.446,VALID,153.418,VALID,19.973,VALID,104.0,VALID,1.436,
2017-06-01, 07:46:06,VALID,918.042,VALID,0.0,VALID,82.206,VALID,157.117,VALID,20.005,VALID,103.0,VALID,1.535,
2017-06-01, 07:47:06,VALID,918.046,VALID,0.0,VALID,81.139,VALID,159.194,VALID,20.044,VALID,111.0,VALID,1.715,
2017-06-01, 07:48:06,VALID,918.044,VALID,0.0,VALID,81.789,VALID,159.613,VALID,20.115,VALID,115.0,VALID,1.406,
2017-06-01, 07:49:06,VALID,918.053,VALID,0.0,VALID,82.119,VALID,158.566,VALID,20.187,VALID,119.0,VALID,1.759,
2017-06-01, 07:50:06,VALID,918.05,VALID,0.0,VALID,82.1,VALID,156.584,VALID,20.281,VALID,128.0,VALID,1.53,
2017-06-01, 07:51:06,VALID,918.036,VALID,0.0,VALID,81.204,VALID,154.597,VALID,20.327,VALID,123.0,VALID,1.969,
2017-06-01, 07:52:06,VALID,918.026,VALID,0.0,VALID,79.993,VALID,153.051,VALID,20.355,VALID,111.0,VALID,1.658,
2017-06-01, 07:53:06,VALID,918.005,VALID,0.0,VALID,81.088,VALID,152.071,VALID,20.359,VALID,103.0,VALID,1.97,
2017-06-01, 07:54:06,VALID,918.04,VALID,0.0,VALID,79.672,VALID,151.499,VALID,20.326,VALID,108.0,VALID,1.758,
2017-06-01, 07:55:06,VALID,918.061,VALID,0.0,VALID,78.965,VALID,151.143,VALID,20.342,VALID,112.0,VALID,1.819,
2017-06-01, 07:56:06,VALID,918.068,VALID,0.0,VALID,79.828,VALID,151.168,VALID,20.412,VALID,124.0,VALID,1.111,
2017-06-01, 07:57:06,VALID,918.063,VALID,0.0,VALID,80.708,VALID,152.082,VALID,20.457,VALID,117.0,VALID,1.116,
2017-06-01, 07:58:06,VALID,918.073,VALID,0.0,VALID,81.218,VALID,153.73,VALID,20.501,VALID,135.0,VALID,1.137,
2017-06-01, 07:59:06,VALID,918.093,VALID,0.0,VALID,79.814,VALID,155.857,VALID,20.539,VALID,137.0,VALID,1.188,
2017-06-01, 08:00:06,VALID,918.113,VALID,0.0,VALID,79.779,VALID,158.487,VALID,20.561,VALID,132.0,VALID,1.22,
2017-06-01, 08:01:06,VALID,918.106,VALID,0.0,VALID,80.321,VALID,161.655,VALID,20.567,VALID,121.0,VALID,1.04,
2017-06-01, 08:02:06,VALID,918.103,VALID,0.0,VALID,81.633,VALID,165.341,VALID,20.561,VALID,129.0,VALID,0.708,
2017-06-01, 08:03:06,VALID,918.103,VALID,0.0,VALID,81.145,VALID,169.53,VALID,20.569,VALID,129.0,VALID,0.722,
2017-06-01, 08:04:06,VALID,918.105,VALID,0.0,VALID,81.652,VALID,173.762,VALID,20.572,VALID,132.0,VALID,0.634,
2017-06-01, 08:05:06,VALID,918.111,VALID,0.0,VALID,82.749,VALID,177.549,VALID,20.596,VALID,131.0,VALID,0.583,
2017-06-01, 08:06:06,VALID,918.111,VALID,0.0,VALID,82.167,VALID,181.219,VALID,20.626,VALID,124.0,VALID,0.596,
2017-06-01, 08:07:06,VALID,918.118,VALID,0.0,VALID,83.281,VALID,184.794,VALID,20.662,VALID,108.0,VALID,0.558,
2017-06-01, 08:08:06,VALID,918.109,VALID,0.0,VALID,80.376,VALID,188.292,VALID,20.694,VALID,104.0,VALID,1.014,
2017-06-01, 08:09:06,VALID,918.096,VALID,0.0,VALID,79.723,VALID,191.902,VALID,20.736,VALID,95.0,VALID,1.035,
2017-06-01, 08:10:06,VALID,918.103,VALID,0.0,VALID,80.692,VALID,195.804,VALID,20.809,VALID,92.0,VALID,0.935,
2017-06-01, 08:11:06,VALID,918.103,VALID,0.0,VALID,81.851,VALID,200.258,VALID,20.897,VALID,77.0,VALID,0.789,
2017-06-01, 08:12:06,VALID,918.093,VALID,0.0,VALID,80.414,VALID,205.048,VALID,20.986,VALID,73.0,VALID,0.762,
2017-06-01, 08:13:06,VALID,918.104,VALID,0.0,VALID,80.314,VALID,210.005,VALID,21.069,VALID,82.0,VALID,0.822,
2017-06-01, 08:14:06,VALID,918.117,VALID,0.0,VALID,79.363,VALID,214.98,VALID,21.138,VALID,94.0,VALID,1.016,
2017-06-01, 08:15:06,VALID,918.144,VALID,0.0,VALID,79.859,VALID,219.964,VALID,21.23,VALID,128.0,VALID,0.562,
2017-06-01, 08:16:06,VALID,918.16,VALID,0.0,VALID,79.239,VALID,225.089,VALID,21.344,VALID,132.0,VALID,0.883,
2017-06-01, 08:17:06,VALID,918.153,VALID,0.0,VALID,79.712,VALID,230.264,VALID,21.441,VALID,148.0,VALID,1.586,
2017-06-01, 08:18:06,VALID,918.131,VALID,0.0,VALID,77.551,VALID,235.492,VALID,21.395,VALID,144.0,VALID,1.513,
2017-06-01, 08:19:06,VALID,918.106,VALID,0.0,VALID,78.622,VALID,240.819,VALID,21.333,VALID,132.0,VALID,1.161,
2017-06-01, 08:20:06,VALID,918.099,VALID,0.0,VALID,79.938,VALID,247.148,VALID,21.337,VALID,115.0,VALID,1.29,
2017-06-01, 08:21:06,VALID,918.086,VALID,0.0,VALID,79.79,VALID,256.658,VALID,21.343,VALID,119.0,VALID,1.18,
2017-06-01, 08:22:06,VALID,918.091,VALID,0.0,VALID,79.932,VALID,250.677,VALID,21.373,VALID,115.0,VALID,0.923,
2017-06-01, 08:23:06,VALID,918.077,VALID,0.0,VALID,79.744,VALID,247.431,VALID,21.408,VALID,119.0,VALID,0.759,
2017-06-01, 08:24:06,VALID,918.052,VALID,0.0,VALID,80.353,VALID,240.268,VALID,21.463,VALID,106.0,VALID,0.778,
2017-06-01, 08:25:06,VALID,918.05,VALID,0.0,VALID,79.386,VALID,235.654,VALID,21.522,VALID,110.0,VALID,0.537,
2017-06-01, 08:26:06,VALID,918.051,VALID,0.0,VALID,78.364,VALID,235.458,VALID,21.595,VALID,117.0,VALID,0.378,
2017-06-01, 08:27:06,VALID,918.077,VALID,0.0,VALID,78.561,VALID,247.548,VALID,21.67,VALID,114.0,VALID,0.185,
2017-06-01, 08:28:06,VALID,918.087,VALID,0.0,VALID,79.846,VALID,360.298,VALID,21.764,VALID,113.0,VALID,0.08,
2017-06-01, 08:29:06,VALID,918.077,VALID,0.0,VALID,77.221,VALID,396.209,VALID,21.873,VALID,111.0,VALID,0.228,
2017-06-01, 08:30:06,VALID,918.091,VALID,0.0,VALID,77.545,VALID,328.116,VALID,21.983,VALID,86.0,VALID,0.238,
2017-06-01, 08:31:06,VALID,918.114,VALID,0.0,VALID,77.985,VALID,383.751,VALID,22.147,VALID,90.0,VALID,0.155,
2017-06-01, 08:32:06,VALID,918.14,VALID,0.0,VALID,78.947,VALID,286.981,VALID,22.389,VALID,115.0,VALID,0.43,
2017-06-01, 08:33:06,VALID,918.183,VALID,0.0,VALID,75.751,VALID,260.07,VALID,22.515,VALID,120.0,VALID,0.605,
2017-06-01, 08:34:06,VALID,918.213,VALID,0.0,VALID,78.326,VALID,255.147,VALID,22.507,VALID,101.0,VALID,0.55,
2017-06-01, 08:35:06,VALID,918.25,VALID,0.0,VALID,78.349,VALID,255.263,VALID,22.515,VALID,91.0,VALID,0.777,
2017-06-01, 08:36:06,VALID,918.28,VALID,0.0,VALID,75.85,VALID,257.216,VALID,22.482,VALID,100.0,VALID,0.742,
2017-06-01, 08:37:06,VALID,918.325,VALID,0.0,VALID,76.035,VALID,258.698,VALID,22.408,VALID,107.0,VALID,0.746,
2017-06-01, 08:38:06,VALID,918.359,VALID,0.0,VALID,76.778,VALID,260.585,VALID,22.375,VALID,103.0,VALID,0.481,
2017-06-01, 08:39:06,VALID,918.393,VALID,0.0,VALID,77.545,VALID,267.186,VALID,22.425,VALID,123.0,VALID,0.685,
2017-06-01, 08:40:06,VALID,918.423,VALID,0.0,VALID,78.001,VALID,278.393,VALID,22.466,VALID,152.0,VALID,0.741,
2017-06-01, 08:41:06,VALID,918.447,VALID,0.0,VALID,78.313,VALID,290.269,VALID,22.356,VALID,163.0,VALID,0.91,
2017-06-01, 08:42:06,VALID,918.458,VALID,0.0,VALID,77.979,VALID,307.023,VALID,22.163,VALID,139.0,VALID,1.173,
2017-06-01, 08:43:06,VALID,918.465,VALID,0.0,VALID,78.182,VALID,326.053,VALID,21.997,VALID,129.0,VALID,0.761,
2017-06-01, 08:44:06,VALID,918.491,VALID,0.0,VALID,79.496,VALID,336.306,VALID,22.005,VALID,102.0,VALID,0.273,
2017-06-01, 08:45:06,VALID,918.5,VALID,0.0,VALID,78.247,VALID,411.727,VALID,22.072,VALID,101.0,VALID,0.434,
2017-06-01, 08:46:06,VALID,918.516,VALID,0.0,VALID,78.379,VALID,485.484,VALID,22.146,VALID,94.0,VALID,0.089,
